Weather History for Fort Morgan, CO

Change the Weather History Date:

Friday, March 22, 2013

  Actual Average (KAKO) Record (KAKO)
Temperature  
Mean Temperature 36 °F 41 °F  
Max Temperature 45 °F 54 °F 77 °F (2009)
Min Temperature 26 °F 27 °F 7 °F (1965)
Degree Days  
Heating Degree Days 30    
Month to date heating degree days  
Cooling Degree Days 0    
Month to date cooling degree days  
Moisture  
Dew Point 23 °F    
Average Humidity 71    
Maximum Humidity 96    
Minimum Humidity 33    
Precipitation  
Precipitation 0.00 in 0.03 in 0.44 in (1979)
Month to date precipitation 0.56  
Year to date precipitation 1.30  
Sea Level Pressure  
Sea Level Pressure 29.82 in    
Wind  
Wind Speed 10 mph (ENE)    
Max Wind Speed 24 mph    
Max Gust Speed 29 mph    
Visibility 9 miles    
Events      
T = Trace of Precipitation, MM = Missing Value Source: NWS Daily Summary

Daily Weather History Graph

Daily Weather History Graph

Search for Another Location

Airport:

Trip Planner

Search our weather history database for the weather conditions in past years. The results will help you decide how hot, cold, wet, or windy it might be!

Date:

Astronomy

Mar. 22, 2013 Rise Set
Actual Time 6:54 AM MDT 7:09 PM MDT
Civil Twilight 6:27 AM MDT 7:36 PM MDT
Nautical Twilight 5:55 AM MDT 8:08 PM MDT
Astronomical Twilight 5:23 AM MDT 8:41 PM MDT
Moon 2:38 PM MDT 3:57 AM MDT
Length of Visible Light 13h 09m
Length of Day
12h 14m
Waxing Gibbous, 78% of the Moon is Illuminated
Mar 22
Waxing Gibbous
Mar 27
Full
Apr 2
Last Quarter
Apr 10
New
Apr 18
First Quarter

Hourly Weather History & Observations

Time (MDT) Temp. Windchill Dew Point Humidity Pressure Visibility Wind Dir Wind Speed Gust Speed Precip Events Conditions
12:15 AM 30.2 °F 19.3 °F 25.7 °F 83% 29.83 in 10.0 mi North 15.0 mph - N/A   Clear
12:35 AM 29.7 °F 18.2 °F 25.7 °F 85% 29.83 in 10.0 mi North 16.1 mph - N/A   Clear
12:55 AM 29.3 °F 17.7 °F 25.3 °F 85% 29.83 in 10.0 mi North 16.1 mph - N/A   Clear
1:15 AM 29.3 °F 17.7 °F 24.8 °F 83% 29.82 in 10.0 mi North 16.1 mph - N/A   Clear
1:35 AM 29.3 °F 20.2 °F 24.4 °F 82% 29.83 in 10.0 mi North 10.4 mph - N/A   Clear
1:55 AM 28.9 °F 25.2 °F 23.7 °F 81% 29.84 in 10.0 mi SE 3.5 mph - N/A   Clear
2:15 AM 28.8 °F 23.7 °F 23.9 °F 82% 29.84 in 10.0 mi SSW 4.6 mph - N/A   Clear
2:35 AM 28.2 °F 22.0 °F 23.0 °F 81% 29.83 in 10.0 mi North 5.8 mph - N/A   Clear
2:55 AM 28.6 °F - 23.4 °F 81% 29.85 in 10.0 mi Calm Calm - N/A   Clear
3:15 AM 27.3 °F - 22.8 °F 83% 29.85 in 10.0 mi Calm Calm - N/A   Clear
3:35 AM 27.7 °F 21.3 °F 22.3 °F 80% 29.84 in 10.0 mi SSE 5.8 mph - N/A   Clear
3:55 AM 29.3 °F - 20.8 °F 71% 29.84 in 10.0 mi Calm Calm - N/A   Clear
4:15 AM 28.0 °F 20.0 °F 20.1 °F 72% 29.82 in 10.0 mi North 8.1 mph - N/A   Clear
4:35 AM 27.3 °F - 19.6 °F 73% 29.82 in 10.0 mi Calm Calm - N/A   Clear
4:55 AM 27.9 °F - 19.6 °F 71% 29.82 in 10.0 mi Calm Calm - N/A   Clear
5:15 AM 28.2 °F - 19.0 °F 68% 29.83 in 10.0 mi Calm Calm - N/A   Clear
5:35 AM 27.0 °F 23.0 °F 18.5 °F 70% 29.83 in 10.0 mi South 3.5 mph - N/A   Clear
5:55 AM 26.2 °F 22.1 °F 18.5 °F 73% 29.83 in 10.0 mi South 3.5 mph - N/A   Clear
6:15 AM 28.0 °F 24.2 °F 18.9 °F 68% 29.84 in 10.0 mi South 3.5 mph - N/A   Clear
6:35 AM 26.4 °F - 19.0 °F 74% 29.84 in 10.0 mi Calm Calm - N/A   Clear
6:55 AM 27.5 °F - 18.5 °F 69% 29.85 in 10.0 mi Calm Calm - N/A   Clear
7:15 AM 27.0 °F - 18.7 °F 71% 29.84 in 10.0 mi Calm Calm - N/A   Clear
7:35 AM 28.4 °F - 21.9 °F 77% 29.85 in 10.0 mi Calm Calm - N/A   Clear
7:55 AM 28.9 °F 25.2 °F 23.2 °F 79% 29.85 in 10.0 mi South 3.5 mph - N/A   Clear
8:15 AM 28.8 °F - 24.1 °F 83% 29.84 in 10.0 mi Calm Calm - N/A   Clear
8:35 AM 29.8 °F 26.3 °F 23.7 °F 78% 29.85 in 10.0 mi South 3.5 mph - N/A   Scattered Clouds
8:55 AM 31.6 °F 27.0 °F 25.3 °F 78% 29.84 in 10.0 mi SSE 4.6 mph - N/A   Mostly Cloudy
9:15 AM 32.0 °F 28.7 °F 24.8 °F 75% 29.84 in 10.0 mi SSE 3.5 mph - N/A   Scattered Clouds
9:35 AM 32.0 °F 27.5 °F 23.4 °F 70% 29.84 in 10.0 mi SE 4.6 mph - N/A   Mostly Cloudy
9:55 AM 32.4 °F 26.0 °F 21.4 °F 64% 29.84 in 10.0 mi ESE 6.9 mph - N/A   Overcast
10:15 AM 32.9 °F 28.5 °F 19.8 °F 59% 29.84 in 10.0 mi SE 4.6 mph - N/A   Overcast
10:35 AM 34.2 °F 28.2 °F 19.2 °F 54% 29.84 in 10.0 mi ESE 6.9 mph - N/A   Overcast
10:55 AM 36.7 °F 32.9 °F 19.0 °F 49% 29.84 in 10.0 mi SSE 4.6 mph - N/A   Mostly Cloudy
11:15 AM 37.9 °F 33.5 °F 17.2 °F 43% 29.83 in 10.0 mi East 5.8 mph - N/A   Mostly Cloudy
11:35 AM 39.2 °F - 16.3 °F 40% 29.82 in 10.0 mi Calm Calm - N/A   Overcast
11:55 AM 39.7 °F 34.3 °F 18.0 °F 42% 29.83 in 10.0 mi East 8.1 mph - N/A   Overcast
12:15 PM 41.4 °F 34.3 °F 17.2 °F 38% 29.81 in 10.0 mi ENE 12.7 mph 16.1 mph N/A   Overcast
12:35 PM 42.8 °F 37.5 °F 17.1 °F 36% 29.81 in 10.0 mi ENE 9.2 mph 17.3 mph N/A   Overcast
12:55 PM 42.6 °F 38.4 °F 18.0 °F 37% 29.80 in 10.0 mi East 6.9 mph 17.3 mph N/A   Mostly Cloudy
1:15 PM 43.3 °F 36.1 °F 18.7 °F 37% 29.79 in 10.0 mi East 15.0 mph 19.6 mph N/A   Scattered Clouds
1:35 PM 43.9 °F 37.9 °F 18.1 °F 36% 29.77 in 10.0 mi East 11.5 mph 18.4 mph N/A   Clear
1:55 PM 43.7 °F 37.3 °F 16.0 °F 33% 29.76 in 10.0 mi ESE 12.7 mph - N/A   Clear
2:15 PM 44.6 °F 38.1 °F 16.9 °F 33% 29.74 in 10.0 mi East 13.8 mph 20.7 mph N/A   Clear
2:35 PM 44.6 °F 38.4 °F 17.4 °F 34% 29.74 in 10.0 mi East 12.7 mph 20.7 mph N/A   Clear
2:55 PM 45.5 °F 39.6 °F 18.3 °F 34% 29.73 in 10.0 mi East 12.7 mph 18.4 mph N/A   Scattered Clouds
3:15 PM 45.5 °F 38.9 °F 18.5 °F 34% 29.72 in 10.0 mi ESE 15.0 mph - N/A   Scattered Clouds
3:35 PM 43.2 °F 37.0 °F 20.5 °F 40% 29.72 in 10.0 mi ESE 11.5 mph - N/A   Mostly Cloudy
3:55 PM 43.0 °F 36.8 °F 21.4 °F 42% 29.72 in 10.0 mi ESE 11.5 mph - N/A   Overcast
4:15 PM 42.6 °F 34.9 °F 21.9 °F 44% 29.72 in 10.0 mi SE 16.1 mph 21.9 mph N/A   Overcast
4:35 PM 41.4 °F 34.3 °F 24.1 °F 50% 29.73 in 10.0 mi ESE 12.7 mph - N/A   Overcast
4:55 PM 40.1 °F 34.7 °F 25.3 °F 56% 29.74 in 10.0 mi East 8.1 mph - N/A   Overcast
5:15 PM 39.2 °F 32.0 °F 25.9 °F 59% 29.74 in 10.0 mi NNE 11.5 mph 18.4 mph N/A   Overcast
5:35 PM 32.2 °F 19.7 °F 30.0 °F 92% 29.76 in 0.8 mi North 21.9 mph - N/A   Overcast
5:55 PM 31.5 °F 18.8 °F 30.2 °F 95% 29.78 in 0.2 mi North 21.9 mph 27.6 mph N/A   Overcast
6:15 PM 31.1 °F 18.0 °F 30.0 °F 96% 29.78 in 0.2 mi North 23.0 mph - N/A   Overcast
6:35 PM 30.6 °F 18.2 °F 29.7 °F 96% 29.81 in - North 19.6 mph 24.2 mph N/A   Overcast
6:55 PM 30.6 °F 17.3 °F 29.7 °F 96% 29.81 in 0.5 mi NNE 23.0 mph - N/A   Overcast
7:15 PM 30.2 °F 16.5 °F 29.3 °F 96% 29.81 in 0.5 mi North 24.2 mph 28.8 mph N/A   Overcast
7:35 PM 30.0 °F 17.2 °F 29.1 °F 96% 29.81 in - NNE 20.7 mph 26.5 mph N/A   Overcast
7:55 PM 29.5 °F 17.2 °F 28.6 °F 96% 29.83 in 1.2 mi NNE 18.4 mph - N/A   Overcast
8:15 PM 29.7 °F 17.8 °F 28.4 °F 95% 29.85 in - North 17.3 mph - N/A   Overcast
8:35 PM 29.5 °F 19.3 °F 28.4 °F 96% 29.87 in - North 12.7 mph - N/A   Overcast
8:55 PM 29.3 °F 19.1 °F 28.4 °F 96% 29.87 in - North 12.7 mph - N/A   Overcast
9:15 PM 29.3 °F 17.0 °F 28.4 °F 96% 29.84 in - NNE 18.4 mph - N/A   Overcast
9:35 PM 29.3 °F 17.7 °F 28.2 °F 96% 29.84 in - NNE 16.1 mph - N/A   Unknown
9:55 PM 29.1 °F 17.5 °F 28.0 °F 96% 29.84 in - NNE 16.1 mph - N/A   Overcast
10:15 PM 29.1 °F 17.5 °F 27.9 °F 95% 29.85 in 7.0 mi NE 16.1 mph - N/A   Overcast
10:35 PM 29.1 °F 19.4 °F 27.5 °F 94% 29.86 in 10.0 mi NE 11.5 mph - N/A   Overcast
10:55 PM 29.1 °F 22.1 °F 27.5 °F 94% 29.89 in 4.0 mi NNE 6.9 mph - N/A   Overcast
11:15 PM 29.1 °F 20.0 °F 27.9 °F 95% 29.89 in 1.2 mi North 10.4 mph - N/A   Overcast
11:35 PM 28.9 °F 19.8 °F 27.9 °F 96% 29.89 in 0.8 mi North 10.4 mph - N/A   Overcast
11:55 PM 27.0 °F 12.5 °F 25.7 °F 95% 29.90 in - North 23.0 mph - N/A   Overcast